Location: Chandler
(33.3060°N, 111.8410°W)
Time: 19:00:48
(UTC-07:00)

Amateur Radio Satellites - All Passes

Search period start: 16 October 2017 18:30
Search period end: 17 October 2017 18:30
Location: Chandler, 33.3060°N, 111.8410°W

Satellite Date Start Highest point End Downlink Frequencies (MHz)
Time Altitude Azimuth
XW-2C 16 Oct 18:36:55 18:39:59 23° 264° (W) 18:43:02 145.795 - 145.815
PCSat 16 Oct 18:38:47 18:44:14 86° 65° (ENE) 18:49:38 145.827
STRAND 1 16 Oct 18:43:52 18:46:33 14° 93° (E) 18:49:13 437.568
AAUSAT CUBESAT 2 16 Oct 18:44:47 18:47:07 15° 69° (ENE) 18:49:26 437.432
UWE-3 16 Oct 18:53:33 18:57:21 26° 71° (ENE) 19:01:12 435.000/436.395/437.385
CUTE-I 16 Oct 19:00:23 19:04:44 26° 264° (W) 19:09:08 437.470
YUBILEINY 16 Oct 19:03:51 19:06:08 11° 64° (ENE) 19:08:24 435.215
STARS 16 Oct 19:04:38 19:08:11 24° 290° (WNW) 19:11:44 437.465
nSIGHT-1 16 Oct 19:06:25 19:09:20 32° 229° (SW) 19:12:16 .
XW-2A 16 Oct 19:24:34 19:27:59 72° 77° (ENE) 19:31:24 145.665 - 145.685
CUTE 1.7 + AOD 2 16 Oct 19:26:10 19:30:05 36° 262° (W) 19:34:00 437.475
Oscar 11 16 Oct 19:26:20 19:29:14 18° 69° (ENE) 19:32:07 .
HO-68 16 Oct 19:27:22 19:34:16 52° 259° (WSW) 19:41:15 435.675
ISS 16 Oct 19:28:53 19:31:29 22° 231° (SW) 19:34:06 437.550
SEEDS 16 Oct 19:41:33 19:45:28 39° 261° (W) 19:49:25 437.485
CUBEBUG 2 16 Oct 19:42:09 19:46:32 47° 261° (W) 19:51:05 437.445
AO-73 16 Oct 19:56:41 20:01:09 63° 76° (ENE) 20:05:42 145.935
FO-29 16 Oct 20:01:29 20:06:14 19° 94° (E) 20:11:13 435.910
ZACube-1 16 Oct 20:16:05 20:20:36 67° 259° (W) 20:25:11 437.345
AAUSAT CUBESAT 2 16 Oct 20:18:29 20:22:13 33° 262° (W) 20:25:58 437.432
STRAND 1 16 Oct 20:20:57 20:25:59 54° 286° (WNW) 20:30:58 437.568
UWE-3 16 Oct 20:29:56 20:33:40 24° 265° (W) 20:37:28 435.000/436.395/437.385
O/OREOS (USA 219) 16 Oct 20:33:11 20:37:19 35° 104° (ESE) 20:41:29 437.305
DELFI C3 16 Oct 20:50:16 20:53:44 31° 73° (ENE) 20:57:12 145.870
YUBILEINY 16 Oct 20:55:35 21:04:24 74° 83° (E) 21:13:12 435.215
Oscar 11 16 Oct 21:01:12 21:05:04 32° 262° (W) 21:08:58 .
Max Valier Satellite 16 Oct 21:02:09 21:05:26 30° 73° (ENE) 21:08:44 145.860
EO-88 16 Oct 21:02:27 21:05:15 21° 72° (ENE) 21:08:02 145.990 - 145.960
UNISAT 6 16 Oct 21:15:31 21:18:15 16° 93° (E) 21:20:58 437.425
BEESAT 3 16 Oct 21:26:32 21:29:39 22° 54° (NE) 21:32:42 437.485
TIGRISAT 16 Oct 21:30:50 21:34:22 21° 95° (E) 21:37:49 435.000
FO-29 16 Oct 21:44:38 21:51:27 69° 286° (WNW) 21:58:58 435.910
PRISM 16 Oct 22:00:22 22:03:21 19° 96° (E) 22:06:19 437.425
LO-87 16 Oct 22:06:00 22:08:07 15° 70° (ENE) 22:10:14 145.935 - 145.965
O/OREOS (USA 219) 16 Oct 22:13:42 22:16:48 18° 299° (WNW) 22:19:55 437.305
ESTCUBE 1 16 Oct 22:25:28 22:28:57 23° 70° (ENE) 22:32:27 437.505/2401.250
DELFI C3 16 Oct 22:26:28 22:28:30 14° 266° (W) 22:30:32 145.870
EO-88 16 Oct 22:36:14 22:38:46 18° 265° (W) 22:41:19 145.990 - 145.960
BEESAT 2 16 Oct 22:36:54 22:40:40 38° 58° (ENE) 22:44:23 435.950
Max Valier Satellite 16 Oct 22:37:31 22:39:17 13° 266° (W) 22:41:04 145.860
UNISAT 6 16 Oct 22:50:46 22:55:05 39° 287° (WNW) 22:59:17 437.425
YUBILEINY 16 Oct 22:54:36 23:00:10 19° 279° (W) 23:05:46 435.215
BEESAT 3 16 Oct 23:03:56 23:07:05 23° 249° (WSW) 23:10:12 437.485
TIGRISAT 16 Oct 23:07:01 23:10:59 29° 289° (WNW) 23:14:52 435.000
AO-85 16 Oct 23:17:59 23:22:40 84° 63° (ENE) 23:27:42 145.980
QB50P2 16 Oct 23:25:38 23:28:35 18° 95° (E) 23:31:31 145.880/145.840
AIST 2D 16 Oct 23:27:50 23:31:13 54° 100° (E) 23:34:37 435.315
NANOSAT C BR1 16 Oct 23:33:10 23:36:01 17° 95° (E) 23:38:51 145.865
PRISM 16 Oct 23:35:06 23:38:31 26° 289° (WNW) 23:41:57 437.425
LO-87 16 Oct 23:38:20 23:41:16 24° 263° (W) 23:44:14 145.935 - 145.965
DUCHIFAT 1 16 Oct 23:45:52 23:49:08 21° 96° (E) 23:52:23 145.980
SPROUT 16 Oct 23:54:11 23:58:20 52° 75° (ENE) 00:02:30 437.525
ESTCUBE 1 17 Oct 00:01:47 00:05:35 27° 263° (W) 00:09:23 437.505/2401.250
VELOX 1 17 Oct 00:08:18 00:12:33 53° 74° (ENE) 00:16:49 145.980
RS-15 17 Oct 00:13:12 00:24:46 52° 109° (ESE) 00:36:26 29.354- 29.394
BEESAT 2 17 Oct 00:16:01 00:18:00 13° 252° (WSW) 00:19:58 435.950
UKube-1 17 Oct 00:26:55 00:28:14 11° 66° (ENE) 00:29:33 .
EO-79 17 Oct 00:36:40 00:40:53 63° 285° (WNW) 00:45:04 145.935-145.965
POLYITAN 1 17 Oct 00:40:17 00:44:27 57° 285° (WNW) 00:48:36 437.675
QB50P2 17 Oct 01:00:39 01:04:20 29° 288° (WNW) 01:08:00 145.880/145.840
NANOSAT C BR1 17 Oct 01:08:00 01:11:42 30° 288° (WNW) 01:15:23 145.865
50 SAT 17 Oct 01:17:19 01:20:32 70° 258° (WSW) 01:23:48 437.505
DUCHIFAT 1 17 Oct 01:21:15 01:24:41 24° 289° (WNW) 01:28:05 145.980
DX 1 17 Oct 01:27:07 01:31:24 79° 257° (WSW) 01:35:45 434.975-435.025
M-CUBED/EXP-1 PRIME 17 Oct 01:32:23 01:35:31 29° 104° (ESE) 01:38:51 437.505
BUGSAT 1 17 Oct 01:44:01 01:48:09 55° 285° (WNW) 01:52:15 437.445
MOZHAYETS 4 17 Oct 01:44:30 01:45:54 11° 65° (ENE) 01:47:17
VELOX 1 17 Oct 01:48:36 01:49:14 10° 268° (W) 01:49:53 145.980
BEESAT 17 Oct 01:53:43 01:56:13 14° 66° (ENE) 01:58:43 436.000
Oscar 19 17 Oct 01:55:12 02:00:19 75° 102° (ESE) 02:05:25 437.125/150
Gurwin Techsat 1B 17 Oct 01:55:29 02:00:39 49° 100° (E) 02:05:47 435.225
UKube-1 17 Oct 01:59:34 02:03:44 51° 259° (W) 02:07:56 .
NO-84 17 Oct 02:17:48 02:18:18 10° 119° (ESE) 02:18:48 435.350 FM
RS-15 17 Oct 02:25:49 02:37:22 46° 309° (NW) 02:49:01 29.354- 29.394
M-CUBED/EXP-1 PRIME 17 Oct 03:07:50 03:09:44 14° 294° (WNW) 03:11:41 437.505
ITUPSAT 1 17 Oct 03:10:30 03:15:18 83° 258° (WSW) 03:20:08 437.325
AO-7 17 Oct 03:17:52 03:25:32 40° 100° (E) 03:33:10 .
MOZHAYETS 4 17 Oct 03:17:53 03:22:28 60° 259° (W) 03:27:04
CUBESAT XI-V 17 Oct 03:19:41 03:23:31 26° 71° (ENE) 03:27:21 437.345
BEESAT 17 Oct 03:28:52 03:33:30 50° 260° (W) 03:38:09 436.000
Gurwin Techsat 1B 17 Oct 03:36:44 03:40:08 17° 294° (WNW) 03:43:32 435.225
Oscar 19 17 Oct 03:37:42 03:38:56 11° 297° (WNW) 03:40:10 437.125/150
KKS-1 17 Oct 03:39:26 03:40:51 11° 65° (ENE) 03:42:16 437.445
NO-84 17 Oct 03:50:54 03:55:12 79° 311° (NW) 03:59:28 435.350 FM
ITAMSAT 1 17 Oct 03:58:34 04:03:47 67° 102° (ESE) 04:08:59 435.822/435.867
STARS 17 Oct 04:22:14 04:24:23 14° 66° (ENE) 04:26:33 437.465
DOVE 4 17 Oct 04:40:09 04:43:56 21° 95° (E) 04:47:49 437.250
RS-15 17 Oct 04:48:10 04:54:20 15° 339° (NNW) 05:00:27 29.354- 29.394
CUBESAT XI-V 17 Oct 04:57:01 05:00:46 24° 264° (W) 05:04:32 437.345
AO-7 17 Oct 05:10:38 05:18:09 40° 296° (WNW) 05:25:40 .
KKS-1 17 Oct 05:12:33 05:16:52 54° 260° (W) 05:21:13 437.445
LilacSat-2 17 Oct 05:26:25 05:27:23 11° 93° (E) 05:28:21 437.200
NO-84 17 Oct 05:31:18 05:33:11 13° 327° (NNW) 05:35:03 435.350 FM
XW-2D 17 Oct 05:37:28 05:39:41 15° 94° (E) 05:41:54 145.860 - 145.880
ITAMSAT 1 17 Oct 05:40:22 05:42:37 13° 296° (WNW) 05:44:52 435.822/435.867
CUTE-I 17 Oct 05:42:00 05:45:34 18° 94° (E) 05:49:06 437.470
XW-2B 17 Oct 05:50:11 05:53:05 21° 96° (E) 05:55:58 145.730 - 145.750
NUDT-PHONESAT 17 Oct 05:53:21 05:55:36 16° 95° (E) 05:57:50 437.300
STARS 17 Oct 05:56:07 06:00:17 44° 260° (W) 06:04:30 437.465
STRAND 1 17 Oct 05:56:14 05:58:51 14° 65° (ENE) 06:01:27 437.568
XW-2C 17 Oct 06:12:36 06:16:12 44° 99° (E) 06:19:46 145.795 - 145.815
DOVE 4 17 Oct 06:17:04 06:21:34 36° 287° (WNW) 06:26:16 437.250
JUGNU 17 Oct 06:23:03 06:25:31 13° 165° (SSE) 06:27:59 437.505
SO-50 17 Oct 06:26:50 06:30:29 25° 111° (ESE) 06:34:08 436.795
O/OREOS (USA 219) 17 Oct 06:47:10 06:51:23 35° 66° (ENE) 06:55:34 437.305
LilacSat-2 17 Oct 06:58:18 07:01:46 35° 286° (WNW) 07:05:12 437.200
HO-68 17 Oct 06:59:37 07:06:17 40° 99° (E) 07:12:54 435.675
XW-2F 17 Oct 07:01:01 07:04:28 38° 286° (WNW) 07:07:55 145.980 - 146.000
KAITUO 1B 17 Oct 07:05:35 07:09:05 43° 285° (WNW) 07:12:34 145.475/437.950
RS-15 17 Oct 07:09:26 07:14:49 14° 18° (NNE) 07:20:06 29.354- 29.394
XW-2D 17 Oct 07:10:42 07:13:50 26° 287° (WNW) 07:16:56 145.860 - 145.880
CUTE 1.7 + AOD 2 17 Oct 07:14:40 07:18:44 48° 99° (E) 07:22:48 437.475
CUTE-I 17 Oct 07:20:38 07:25:45 46° 288° (WNW) 07:30:52 437.470
XW-2B 17 Oct 07:24:27 07:27:05 18° 289° (WNW) 07:29:42 145.730 - 145.750
NUDT-PHONESAT 17 Oct 07:26:26 07:29:24 24° 288° (WNW) 07:32:20 437.300
SEEDS 17 Oct 07:29:03 07:33:00 42° 99° (E) 07:36:57 437.485
STRAND 1 17 Oct 07:32:27 07:37:28 58° 259° (W) 07:42:32 437.568
PCSat 17 Oct 07:34:35 07:38:25 20° 105° (ESE) 07:42:16 145.827
CUBEBUG 2 17 Oct 07:37:04 07:41:35 51° 99° (E) 07:45:58 437.445
AO-73 17 Oct 07:50:15 07:52:55 16° 93° (E) 07:55:34 145.935
FO-29 17 Oct 07:54:31 07:58:53 29° 69° (ENE) 08:03:25 435.910
Tancredo 1 17 Oct 07:56:12 07:57:11 13° 130° (SE) 07:58:11 437.200
YUBILEINY 17 Oct 07:59:37 08:03:59 15° 79° (E) 08:08:21 435.215
AAUSAT CUBESAT 2 17 Oct 08:04:03 08:08:01 46° 99° (E) 08:11:59 437.432
SO-50 17 Oct 08:06:59 08:10:47 27° 306° (NW) 08:14:38 436.795
ZACube-1 17 Oct 08:09:00 08:12:55 31° 97° (E) 08:16:44 437.345
JUGNU 17 Oct 08:09:40 08:13:50 20° 174° (S) 08:17:59 437.505
XW-2A 17 Oct 08:22:40 08:25:56 54° 283° (WNW) 08:29:10 145.665 - 145.685
UWE-3 17 Oct 08:22:48 08:27:20 84° 284° (WNW) 08:31:43 435.000/436.395/437.385
TIGRISAT 17 Oct 08:26:49 08:28:41 12° 66° (ENE) 08:30:33 435.000
O/OREOS (USA 219) 17 Oct 08:27:27 08:30:27 17° 260° (W) 08:33:26 437.305
HO-68 17 Oct 08:47:30 08:53:47 34° 294° (WNW) 09:00:03 435.675
Oscar 11 17 Oct 08:51:53 08:56:09 61° 100° (E) 09:00:23 .
CUTE 1.7 + AOD 2 17 Oct 08:52:54 08:54:05 11° 293° (WNW) 08:55:16 437.475
SEEDS 17 Oct 09:06:30 09:08:16 12° 292° (WNW) 09:10:01 437.485
CUBEBUG 2 17 Oct 09:15:32 09:17:39 13° 294° (WNW) 09:19:44 437.445
PCSat 17 Oct 09:16:17 09:21:25 44° 300° (WNW) 09:26:36 145.827
RS-15 17 Oct 09:20:56 09:32:01 42° 50° (NE) 09:42:28 29.354- 29.394
AO-73 17 Oct 09:25:17 09:29:13 33° 288° (WNW) 09:33:02 145.935
Tancredo 1 17 Oct 09:28:18 09:28:58 11° 324° (NW) 09:29:37 437.200
FO-29 17 Oct 09:39:44 09:43:58 25° 264° (W) 09:48:19 435.910
AAUSAT CUBESAT 2 17 Oct 09:41:46 09:43:01 11° 293° (WNW) 09:44:16 437.432
UNISAT 6 17 Oct 09:44:23 09:48:57 78° 258° (WSW) 09:53:38 437.425
ZACube-1 17 Oct 09:45:57 09:48:54 18° 291° (WNW) 09:51:48 437.345
YUBILEINY 17 Oct 09:50:51 09:59:32 86° 276° (W) 10:08:17 435.215
JUGNU 17 Oct 09:57:59 10:02:11 20° 185° (S) 10:06:23 437.505
TIGRISAT 17 Oct 10:00:18 10:04:47 55° 260° (W) 10:09:23 435.000
AIST 2D 17 Oct 10:00:21 10:01:07 11° 69° (ENE) 10:01:52 435.315
nSIGHT-1 17 Oct 10:04:54 10:07:57 46° 133° (SE) 10:11:02 .
DELFI C3 17 Oct 10:04:59 10:08:57 85° 282° (WNW) 10:12:54 145.870
EO-88 17 Oct 10:07:32 10:11:02 47° 99° (E) 10:14:32 145.990 - 145.960
Max Valier Satellite 17 Oct 10:09:07 10:12:48 77° 102° (ESE) 10:16:26 145.860
PRISM 17 Oct 10:19:12 10:23:12 66° 258° (WSW) 10:27:15 437.425
SRMSAT 17 Oct 10:26:14 10:30:13 19° 171° (S) 10:34:12 437.500
ISS 17 Oct 10:28:44 10:31:57 80° 135° (SE) 10:35:13 437.550
NO-84 17 Oct 10:30:00 10:31:16 11° 31° (NNE) 10:32:30 435.350 FM
LO-87 17 Oct 11:08:34 11:11:49 31° 98° (E) 11:15:04 145.935 - 145.965
EO-79 17 Oct 11:24:23 11:28:30 52° 75° (ENE) 11:32:40 145.935-145.965
POLYITAN 1 17 Oct 11:28:02 11:32:13 58° 75° (ENE) 11:36:26 437.675
AIST 2D 17 Oct 11:30:42 11:33:54 33° 262° (W) 11:37:07 435.315
RS-15 17 Oct 11:33:28 11:44:38 54° 251° (WSW) 11:55:16 29.354- 29.394
nSIGHT-1 17 Oct 11:42:26 11:44:24 15° 328° (NNW) 11:46:23 .
SPROUT 17 Oct 11:45:47 11:47:33 12° 93° (E) 11:49:19 437.525
JUGNU 17 Oct 11:47:45 11:50:30 14° 194° (SSW) 11:53:16 437.505
QB50P2 17 Oct 11:48:00 11:52:14 69° 258° (WSW) 11:56:31 145.880/145.840
YUBILEINY 17 Oct 11:53:33 11:57:32 14° 294° (WNW) 12:01:33 435.215
NANOSAT C BR1 17 Oct 11:54:50 11:59:03 73° 258° (WSW) 12:03:18 145.865
ESTCUBE 1 17 Oct 11:57:22 12:01:51 87° 105° (ESE) 12:06:19 437.505/2401.250
VELOX 1 17 Oct 12:03:50 12:06:09 14° 94° (E) 12:08:26 145.980
NO-84 17 Oct 12:05:36 12:09:08 77° 232° (SW) 12:12:22 435.350 FM
ISS 17 Oct 12:07:34 12:08:48 12° 331° (NNW) 12:10:02 437.550
DUCHIFAT 1 17 Oct 12:07:37 12:11:47 58° 260° (W) 12:15:58 145.980
SRMSAT 17 Oct 12:14:18 12:18:45 22° 181° (S) 12:23:14 437.500
M-CUBED/EXP-1 PRIME 17 Oct 12:15:30 12:17:48 17° 67° (ENE) 12:20:02 437.505
BEESAT 2 17 Oct 12:24:45 12:27:29 18° 110° (ESE) 12:30:15 435.950
BUGSAT 1 17 Oct 12:28:57 12:32:59 54° 75° (ENE) 12:37:06 437.445
LO-87 17 Oct 12:43:24 12:44:53 12° 291° (WNW) 12:46:22 145.935 - 145.965
BEESAT 3 17 Oct 12:48:18 12:52:12 54° 300° (WNW) 12:56:10 437.485
Oscar 19 17 Oct 13:07:40 13:12:49 71° 75° (ENE) 13:17:58 437.125/150
Gurwin Techsat 1B 17 Oct 13:12:21 13:17:30 52° 73° (ENE) 13:22:38 435.225
SPROUT 17 Oct 13:19:31 13:23:36 43° 286° (WNW) 13:27:39 437.525
DX 1 17 Oct 13:19:49 13:23:22 24° 97° (E) 13:26:54 434.975-435.025
AO-85 17 Oct 13:29:00 13:32:52 73° 117° (ESE) 13:36:46 145.980
VELOX 1 17 Oct 13:38:32 13:42:42 41° 287° (WNW) 13:46:51 145.980
M-CUBED/EXP-1 PRIME 17 Oct 13:49:24 13:52:05 20° 258° (WSW) 13:54:40 437.505
UKube-1 17 Oct 13:50:37 13:54:33 33° 99° (E) 13:58:27 .
BEESAT 2 17 Oct 14:01:27 14:04:58 29° 304° (NW) 14:08:31 435.950
SRMSAT 17 Oct 14:03:34 14:07:17 17° 191° (S) 14:11:01 437.500
50 SAT 17 Oct 14:12:26 14:15:33 40° 285° (WNW) 14:18:39 437.505
AO-7 17 Oct 14:12:29 14:19:56 39° 64° (ENE) 14:27:23 .
Oscar 19 17 Oct 14:51:48 14:52:31 10° 268° (W) 14:53:15 437.125/150
Gurwin Techsat 1B 17 Oct 14:54:39 14:57:40 15° 267° (W) 15:00:42 435.225
DX 1 17 Oct 14:55:55 14:59:24 24° 290° (WNW) 15:02:53 434.975-435.025
ITAMSAT 1 17 Oct 15:12:17 15:17:25 67° 74° (ENE) 15:22:34 435.822/435.867
ITUPSAT 1 17 Oct 15:15:25 15:19:46 34° 98° (E) 15:24:06 437.325
MOZHAYETS 4 17 Oct 15:17:06 15:21:26 42° 99° (E) 15:25:44
UKube-1 17 Oct 15:27:28 15:30:15 17° 292° (WNW) 15:33:02 .
BEESAT 17 Oct 15:32:54 15:37:36 56° 101° (E) 15:42:16 436.000
Tancredo 1 17 Oct 15:39:10 15:40:18 14° 38° (NE) 15:41:24 437.200
DOVE 4 17 Oct 15:44:55 15:45:22 10° 66° (ENE) 15:45:48 437.250
AO-7 17 Oct 16:04:51 16:12:31 41° 259° (W) 16:20:14 .
nSIGHT-1 17 Oct 16:36:44 16:37:41 11° 29° (NNE) 16:38:37 .
SO-50 17 Oct 16:41:00 16:45:39 83° 61° (ENE) 16:50:20 436.795
XW-2C 17 Oct 16:51:23 16:53:05 13° 69° (ENE) 16:54:48 145.795 - 145.815
ITUPSAT 1 17 Oct 16:53:50 16:57:19 20° 292° (WNW) 17:00:46 437.325
MOZHAYETS 4 17 Oct 16:55:33 16:58:11 15° 293° (WNW) 17:00:48
ITAMSAT 1 17 Oct 16:55:47 16:57:15 11° 268° (W) 16:58:43 435.822/435.867
CUBESAT XI-V 17 Oct 16:56:30 17:01:05 72° 284° (WNW) 17:05:39 437.345
CUTE-I 17 Oct 16:59:54 17:03:41 20° 67° (ENE) 17:07:28 437.470
ISS 17 Oct 17:00:38 17:02:41 15° 32° (NNE) 17:04:44 437.550
KKS-1 17 Oct 17:07:31 17:11:41 37° 99° (E) 17:15:50 437.445
BEESAT 17 Oct 17:12:44 17:14:50 13° 295° (WNW) 17:16:55 436.000
DOVE 4 17 Oct 17:18:31 17:22:31 50° 261° (W) 17:26:38 437.250
HO-68 17 Oct 17:25:33 17:30:20 20° 61° (ENE) 17:35:07 435.675
LilacSat-2 17 Oct 17:35:19 17:39:03 53° 76° (ENE) 17:42:48 437.200
XW-2F 17 Oct 17:37:01 17:40:40 47° 76° (ENE) 17:44:19 145.980 - 146.000
KAITUO 1B 17 Oct 17:40:53 17:44:24 39° 75° (ENE) 17:47:55 145.475/437.950
XW-2D 17 Oct 17:46:40 17:50:28 75° 77° (ENE) 17:54:16 145.860 - 145.880
STARS 17 Oct 17:49:15 17:53:30 43° 100° (E) 17:57:42 437.465
XW-2B 17 Oct 18:00:00 18:03:48 75° 257° (WSW) 18:07:37 145.730 - 145.750
NUDT-PHONESAT 17 Oct 18:00:10 18:03:53 73° 77° (ENE) 18:07:36 437.300
CUTE 1.7 + AOD 2 17 Oct 18:03:44 18:06:53 21° 70° (ENE) 18:10:02 437.475
PCSat 17 Oct 18:07:57 18:13:20 60° 63° (ENE) 18:18:39 145.827
nSIGHT-1 17 Oct 18:11:08 18:14:21 86° 222° (SW) 18:17:33 .
SEEDS 17 Oct 18:17:25 18:20:12 17° 70° (ENE) 18:22:59 437.485
XW-2C 17 Oct 18:23:26 18:26:55 33° 262° (W) 18:30:24 145.795 - 145.815
